SWOT

Last updated on Wed Mar 11 2026 00:02:35 GMT+0000 (Coordinated Universal Time)

1 54754U 22173A 26069.52431906 .00000145 00000+0 99728-4 0 9991 2 54754 77.6121 168.4947 0000548 255.7074 104.4017 14.00169750165346
UTC large
Height (km)
Speed (km/s)
/
Latitude / Longitude
Inclination (degrees)
Orbital Period (minutes)
Azimuth
Elevation
Range (km)
Doppler Factor

Next 0 passes for location: London (51.5072 / 0.1276)

Sorry there are no passes over London.